Regional Weather Roundup
Issued by NWS

Home | Current Version | Previous Version | Text Only | Print | Product List | Glossary Off
Versions: 1 2 3 4 5 6 7 8 9 10 11 12 13 14 15 16 17 18 19 20 21 22 23 24 25 26 27 28 29 30 31 32 33 34 35 36 37 38 39 40 41 42 43 44 45 46 47 48 49 50

000
ASUS44 KMEG 260810
RWRTN
TENNESSEE HOURLY STATE WEATHER ROUNDUP
NATIONAL WEATHER SERVICE MEMPHIS TN
300 AM CDT WED APR 26 2017

TNZ002-004-019-021-049-052-054-088>092-260900-
WEST TENNESSEE

CITY           SKY/WX    TMP DP  RH WIND       PRES   REMARKS
MEMPHIS INTL   PTCLDY    67  57  70 S10       29.62R
NWS MEMPHIS      N/A     65 N/A N/A MISG        N/A
JACKSON        CLEAR     65  56  72 S9          N/A
DYERSBURG      PTCLDY    65  55  70 S6        29.62S
SOMERVILLE     CLEAR     64  55  72 S8        29.62R
UNION CITY     CLOUDY    64  55  72 S8        29.60S
BOLIVAR        PTCLDY    61  55  82 S5        29.64R
PARIS          CLEAR     61  54  77 S7        29.64R
HUNTINGDON     CLEAR     64  55  72 S7        29.63R
LEXINGTON      CLEAR     59  55  88 S3        29.65R
SAVANNAH       MOCLDY    61  57  88 S3        29.65S
$$

TNZ008-025-027-028-033-062-065-066-260900-
NORTH MIDDLE TENNESSEE

CITY           SKY/WX    TMP DP  RH WIND       PRES   REMARKS
NASHVILLE      CLEAR     62  55  77 CALM      29.69S
PORTLAND       CLEAR     59  55  88 S7        29.68S
CLARKSVILLE    CLEAR     58  54  86 SE3       29.65F
SMYRNA         CLEAR     54  53  97 CALM      29.70S
COOKEVILLE     CLEAR     59  55  88 S5        29.71S
GALLATIN       CLEAR     55  54  94 CALM      29.72S
CROSSVILLE     CLEAR     54  52  93 CALM      29.76S
$$

TNZ061-075-076-078-094-096-097-260900-
SOUTH MIDDLE TENNESSEE

CITY           SKY/WX    TMP DP  RH WIND       PRES   REMARKS
FAYETTEVILLE   CLEAR     61  55  82 S8        29.71S
TULLAHOMA      CLEAR     57  54  88 SE3       29.72F
WINCHESTER     CLEAR     57  54  88 SE3       29.73S
MCMINNVILLE    CLEAR     54  54 100 CALM      29.72S
COLUMBIA       CLEAR     61  61 100 S5        29.66F
SHELBYVILLE    CLEAR     61  57  88 SE5       29.71S
$$

TNZ017-018-042-046-047-260900-
NORTHEAST TENNESSEE

CITY           SKY/WX    TMP DP  RH WIND       PRES   REMARKS
TRI CITIES     FOG       50  49  96 CALM      29.76F VSB 3/4
ELIZABETHTON     N/A     50  50 100 CALM      29.76F FOG
$$

TNZ012-013-036-069-073-074-260900-
CENTRAL EAST TENNESSEE

CITY           SKY/WX    TMP DP  RH WIND       PRES   REMARKS
KNOXVILLE      PTCLDY    56  53  90 CALM      29.73R
OAK RIDGE      CLEAR     54  51  90 CALM      29.75S
DOWNTOWN KNOXV FOG       52  52 100 CALM      29.74S VSB 1/4
GATLINBURG     CLEAR     52  52 100 CALM      29.73F
MORRISTOWN     PTCLDY    54  54 100 CALM      29.74S
JACKSBORO      FOG       54  54 100 CALM      29.77S VSB 0
$$

TNZ083-085-099-260900-
SOUTHEAST TENNESSEE

CITY           SKY/WX    TMP DP  RH WIND       PRES   REMARKS
CHATTANOOGA    CLEAR     57  55  93 CALM      29.74F
$$

SKY/WX REPORTED AS FAIR MEANS FEW OR NO CLOUDS BELOW
12 THOUSAND FEET.




USA.gov is the U.S. government's official web portal to all federal, state and local government web resources and services.